Dewpoint
47 46 45 43 42 40 38 35 31 31 30 30 30 29 28 27 27 26 27 26 25 24 23 22 21 20 18 17 17 14 13 16 15 18 16 15 10 8 3 3 4 -1 3
45 45 45 42 40 39 36 33 31 30 30 29 29 29 28 27 26 26 24 23 24 24 23 22 19 14 16 15 14 13 12 13 15 14 16 15 11 8 6 2 -3 -5 -5
42 43 42 40 39 38 35 31 30 30 29 29 28 28 28 27 26 26 24 25 24 24 23 21 19 18 17 15 14 12 11 7 12 15 14 16 14 10 4 4 1 3 -3
40 41 40 39 37 36 33 30 29 29 29 28 28 27 27 27 25 25 24 24 24 23 22 21 19 18 18 16 13 13 10 11 12 14 14 11 10 10 9 6 7 7 4
36 38 38 37 35 33 31 30 30 29 28 28 27 27 26 25 23 24 23 24 23 21 20 19 19 20 19 17 12 13 11 10 11 11 11 11 9 8 6 8 7 8 8
35 36 36 35 33 31 30 29 28 28 28 28 27 26 26 23 28 28 26 22 21 19 19 19 18 23 22 21 19 14 11 10 10 12 10 9 6 6 9 8 8 8 9
35 34 33 33 31 30 28 27 27 26 26 26 26 26 25 25 28 30 29 23 20 19 18 17 19 18 24 21 21 20 17 15 13 8 7 6 8 7 10 10 8 7 5
33 33 32 31 30 30 29 28 28 27 26 26 26 26 25 24 29 30 31 24 21 20 19 19 19 18 21 21 18 8 4 3 3 6 7 6 5 5 5 5 5 6 7
31 31 31 30 30 29 29 28 29 28 28 27 26 27 27 26 29 30 31 28 22 20 19 19 18 17 20 23 15 13 13 14 12 9 7 8 10 9 6 7 10 9 9
31 31 31 30 30 29 29 30 31 30 30 28 28 28 29 29 28 30 30 30 28 24 21 19 23 19 20 23 20 17 16 15 16 17 17 17 15 15 9 -1 4 7 6
33 32 31 31 31 30 31 30 32 31 31 31 30 30 29 28 27 30 31 29 29 29 27 24 22 24 23 23 23 20 19 17 17 16 17 16 12 11 9 5 2 2 5
33 32 32 31 32 32 32 33 32 32 31 31 31 30 29 28 27 28 30 32 30 31 29 27 26 24 25 25 24 23 22 18 16 16 14 13 11 9 5 3 2 1 0
32 32 33 33 33 33 33 33 31 32 31 31 29 29 29 27 27 28 29 30 32 31 29 29 26 26 26 25 25 24 24 23 17 15 13 10 9 7 4 3 3 3 3
33 32 31 32 31 31 31 32 33 31 30 30 30 30 30 28 27 27 29 30 30 31 31 29 27 27 26 25 24 25 26 22 19 16 15 11 6 4 4 4 2 2 0
30 29 31 31 32 30 29 30 29 32 32 33 33 32 32 31 30 28 28 29 31 31 32 31 27 27 26 25 25 25 23 20 16 17 15 12 7 5 4 4 2 1 -1
29 28 27 27 26 26 27 27 25 28 27 28 28 29 31 28 26 26 27 28 27 27 28 27 26 26 25 24 24 23 22 18 18 17 15 13 8 5 3 3 1 -0 -0
27 26 24 24 25 25 25 26 28 26 24 28 29 29 29 30 28 28 28 27 27 28 28 27 26 26 25 24 24 23 21 19 18 16 14 13 11 8 4 3 0 -1 -1
22 20 25 24 24 24 24 25 24 25 27 27 23 24 26 28 29 29 30 29 29 29 29 28 27 26 26 24 24 23 23 21 16 15 14 13 12 9 7 3 2 0 -1
22 21 21 20 20 20 21 22 22 22 23 23 22 22 22 22 25 26 28 30 29 29 29 29 29 28 27 26 25 25 23 21 18 15 14 13 12 9 8 7 4 -1 -2
16 13 16 19 18 19 20 21 21 21 21 21 21 22 23 24 25 25 26 26 26 28 30 29 29 29 28 26 25 24 22 20 18 15 14 13 12 9 7 7 5 2 -4
16 15 11 17 18 18 18 19 18 18 19 20 21 21 22 25 25 25 25 26 26 26 27 28 30 29 27 26 24 23 21 20 18 16 14 12 11 8 6 8 6 1 -0
15 15 16 16 15 17 17 16 18 19 19 19 21 22 22 22 22 21 21 21 22 23 23 24 25 26 26 25 24 22 20 18 18 15 14 12 10 7 6 4 4 2 -2
14 14 14 13 13 11 15 16 18 19 18 17 17 16 17 17 16 16 17 18 19 19 20 20 21 22 24 24 23 22 21 19 18 18 14 11 8 7 5 4 2 -1 -2
11 11 12 12 12 13 13 14 13 10 11 13 13 13 13 13 14 13 14 15 15 15 16 17 17 17 19 21 22 21 20 19 19 17 14 12 9 6 5 3 2 -1 -3
9 10 10 10 10 9 10 10 9 10 10 10 10 10 10 11 11 11 12 12 11 12 12 13 15 15 15 16 17 18 18 17 16 15 13 11 9 7 3 3 2 -1 -4
6 6 6 6 7 6 7 7 7 7 7 7 8 8 8 8 8 9 10 9 9 10 11 12 12 12 13 14 14 16 16 16 14 13 12 9 7 6 3 2 1 -1 -4
Lifted_Index
2 3 3 5 6 7 7 8 8 8 10 12 12 12 12 13 13 13 13 13 12 12 12 12 12 12 12 12 12 11 11 10 10 10 12 13 14 15 15 16 17 18 18
3 4 4 6 7 8 8 8 8 8 10 11 11 11 12 13 13 13 13 13 12 12 12 12 12 12 12 12 11 11 11 10 10 10 11 13 14 15 15 16 17 17 18
5 6 6 7 8 8 8 8 8 9 10 11 11 11 12 12 13 13 13 12 12 12 12 12 12 12 12 11 11 10 10 10 10 10 10 12 13 15 15 16 16 17 17
7 8 8 8 8 8 8 8 8 9 10 10 10 10 11 12 12 13 12 12 12 12 12 12 12 12 12 11 11 10 10 10 9 9 10 11 13 14 15 15 15 16 16
8 8 9 9 8 8 8 8 8 10 10 10 10 10 11 12 12 12 12 12 11 11 11 12 12 12 12 11 11 10 10 9 9 9 10 11 12 13 15 15 15 15 15
8 8 9 9 8 8 7 8 9 9 9 9 9 10 10 11 12 12 12 11 11 11 11 11 12 12 12 11 11 10 10 9 9 9 10 11 12 14 15 15 15 14 14
8 8 8 8 8 8 8 8 9 9 8 8 9 9 9 10 11 11 12 11 11 11 11 11 11 11 11 11 11 10 10 10 10 11 11 12 14 15 16 16 15 15 15
8 8 8 7 7 7 8 8 8 8 8 8 8 9 9 10 10 11 11 11 11 11 11 11 11 10 11 11 10 10 10 10 12 13 14 15 16 17 18 17 16 16 15
8 8 7 7 7 7 8 8 8 7 7 7 8 8 9 9 10 10 11 11 11 11 11 10 10 10 10 10 10 9 10 11 12 14 15 17 18 19 19 18 17 15 15
8 8 7 6 6 7 8 8 8 7 7 7 7 7 8 8 9 10 10 11 10 10 10 10 10 10 10 10 10 10 10 11 12 13 15 17 18 19 19 19 18 16 15
7 7 7 7 6 7 7 8 7 7 7 6 6 6 7 7 8 9 10 10 10 10 9 9 9 10 10 10 10 11 11 13 13 13 14 15 17 18 19 19 19 18 17
7 7 7 7 7 7 7 7 7 7 6 5 5 6 6 7 8 9 9 9 9 9 9 9 9 10 10 11 11 12 13 13 13 13 13 14 15 17 19 19 19 19 18
6 6 7 7 7 7 7 7 7 6 6 5 6 6 7 7 8 8 8 9 9 8 8 9 9 10 11 11 12 13 13 14 13 12 13 13 15 17 19 19 19 18 18
6 6 6 7 7 7 7 7 7 6 6 6 7 7 8 8 8 8 8 8 8 8 8 9 9 10 10 11 12 13 14 14 13 13 13 14 16 17 18 19 18 17 17
5 5 6 7 7 7 7 7 7 7 8 8 9 9 9 9 9 8 7 7 7 8 8 9 9 9 10 10 11 12 13 13 13 13 14 15 16 16 17 18 18 17 16
5 6 6 7 8 8 8 8 8 9 9 10 10 10 10 10 9 8 8 7 8 8 8 8 8 9 9 10 10 11 12 13 14 15 15 15 16 16 17 18 18 18 17
7 7 7 8 9 9 9 10 10 10 10 10 10 10 10 10 9 9 8 8 8 8 8 8 8 8 9 9 10 11 12 14 15 15 16 16 16 17 17 17 18 18 18
8 8 9 10 10 10 10 10 10 10 10 10 10 10 9 9 9 9 9 9 8 8 8 8 8 9 9 10 11 12 13 15 15 16 16 16 17 17 17 17 17 18 18
9 10 10 10 10 11 11 11 10 10 10 10 9 9 9 9 9 9 9 8 7 7 7 8 9 10 11 12 13 14 15 15 16 16 16 16 17 17 16 16 17 17 18
11 11 10 10 11 11 11 11 11 11 11 11 10 9 9 9 9 9 9 8 8 8 8 9 10 12 13 14 15 15 15 16 16 16 16 16 17 16 16 16 16 17 17
11 11 11 11 11 11 11 11 12 12 12 11 11 10 10 10 10 10 10 10 10 10 10 11 12 13 14 15 16 16 16 16 16 16 17 17 17 16 16 16 16 16 17
11 12 12 12 12 12 12 12 12 12 12 11 11 11 11 11 11 12 12 12 12 13 13 13 13 14 15 16 16 16 16 16 17 17 17 17 17 17 16 16 16 16 17
12 12 11 12 12 12 12 12 12 12 11 11 11 11 12 12 12 13 13 14 14 14 15 15 15 15 16 16 17 17 17 17 17 17 17 17 17 17 17 16 16 16 17
11 11 11 11 12 12 12 12 12 12 12 11 11 12 12 13 13 14 15 15 16 16 16 16 16 16 16 17 17 17 18 18 18 18 18 17 17 17 17 16 16 17 17
12 12 12 12 12 12 12 12 12 12 12 12 13 13 14 14 15 15 16 16 16 16 16 17 17 16 16 17 17 18 18 18 18 18 18 17 17 16 16 16 16 17 17
12 12 12 12 13 12 12 12 12 13 13 13 13 14 15 15 15 16 16 16 16 17 17 17 17 17 17 17 17 18 18 18 18 18 18 17 17 16 16 16 16 16 17